Temp
-7 -8 -8 -8 -8 -8 -8 -8 -8 -8 -8 -8 -8 -8 -8 -8 -8 -8 -8 -8 -8 -8 -7 -7 -7 -7 -7 -7 -7 -7 -8 -8 -7 -7 -7 -7 -7 -7 -7 -7 -7 -7 -7
-7 -8 -8 -8 -8 -8 -8 -8 -8 -8 -9 -8 -8 -8 -8 -8 -8 -8 -8 -8 -8 -8 -8 -8 -7 -8 -7 -7 -7 -8 -8 -8 -8 -7 -7 -7 -7 -7 -7 -7 -7 -7 -7
-8 -8 -8 -8 -8 -8 -8 -8 -8 -8 -9 -9 -8 -8 -8 -9 -9 -9 -9 -8 -8 -8 -8 -8 -8 -8 -8 -8 -8 -8 -8 -7 -8 -7 -8 -7 -7 -7 -7 -7 -7 -7 -7
-8 -8 -8 -8 -8 -8 -8 -9 -9 -8 -8 -9 -8 -9 -9 -9 -9 -9 -9 -9 -8 -8 -8 -8 -8 -8 -8 -8 -8 -8 -8 -8 -8 -7 -7 -7 -7 -7 -7 -6 -7 -7 -7
-8 -8 -8 -8 -8 -8 -8 -9 -9 -9 -8 -9 -9 -8 -9 -9 -9 -9 -9 -9 -9 -9 -8 -9 -8 -9 -8 -8 -8 -8 -8 -8 -8 -8 -7 -7 -7 -7 -7 -7 -7 -7 -8
-8 -8 -8 -8 -8 -8 -9 -9 -9 -9 -9 -9 -9 -9 -9 -9 -10 -10 -10 -9 -9 -9 -9 -9 -8 -8 -8 -8 -8 -8 -8 -8 -8 -8 -7 -7 -7 -7 -7 -7 -7 -8 -8
-8 -8 -8 -8 -8 -8 -9 -9 -9 -9 -9 -9 -9 -9 -9 -9 -9 -10 -9 -9 -9 -9 -9 -9 -9 -9 -8 -8 -8 -8 -8 -8 -7 -7 -7 -7 -7 -7 -7 -8 -8 -8 -8
-8 -8 -8 -8 -8 -8 -8 -9 -9 -9 -9 -9 -9 -9 -9 -9 -9 -10 -10 -9 -9 -9 -9 -9 -9 -8 -8 -8 -8 -7 -7 -7 -7 -7 -7 -7 -7 -7 -8 -8 -8 -8 -8
-8 -8 -8 -8 -8 -8 -9 -9 -9 -9 -9 -9 -9 -9 -9 -9 -9 -10 -10 -9 -9 -9 -9 -9 -9 -8 -8 -8 -8 -7 -7 -7 -7 -7 -7 -7 -8 -8 -8 -8 -8 -8 -8
-8 -8 -8 -8 -9 -8 -9 -9 -9 -9 -9 -9 -9 -9 -9 -9 -10 -9 -10 -9 -9 -9 -9 -9 -9 -8 -8 -8 -8 -7 -8 -7 -7 -7 -8 -8 -8 -8 -8 -8 -8 -8 -8
-8 -8 -8 -8 -8 -9 -9 -9 -9 -9 -9 -9 -9 -9 -10 -10 -10 -9 -9 -9 -9 -9 -9 -9 -8 -8 -8 -8 -8 -8 -8 -8 -8 -8 -8 -8 -8 -9 -9 -9 -9 -8 -8
-7 -8 -8 -8 -8 -9 -9 -9 -9 -8 -9 -9 -9 -10 -10 -10 -9 -9 -9 -9 -9 -9 -9 -9 -9 -8 -8 -8 -8 -8 -8 -8 -8 -8 -9 -9 -9 -9 -9 -9 -9 -8 -8
-8 -8 -8 -8 -8 -8 -8 -8 -8 -9 -9 -9 -9 -9 -10 -9 -10 -10 -9 -9 -9 -9 -9 -9 -8 -8 -8 -8 -9 -9 -9 -9 -9 -9 -10 -10 -9 -9 -9 -9 -9 -8 -8
-7 -8 -8 -8 -8 -8 -8 -8 -8 -8 -9 -9 -9 -9 -9 -10 -9 -9 -10 -9 -9 -9 -9 -8 -8 -8 -8 -8 -9 -9 -9 -10 -9 -10 -10 -9 -9 -9 -9 -9 -9 -9 -8
-7 -7 -8 -8 -8 -8 -8 -8 -8 -8 -9 -9 -9 -9 -9 -9 -9 -9 -9 -9 -9 -9 -9 -9 -9 -8 -9 -9 -9 -9 -9 -9 -10 -10 -9 -9 -9 -10 -9 -9 -9 -9 -8
-7 -6 -7 -7 -7 -8 -8 -8 -8 -8 -8 -9 -9 -9 -9 -9 -9 -9 -9 -9 -8 -9 -9 -9 -8 -8 -9 -9 -9 -9 -9 -9 -9 -9 -9 -9 -10 -10 -10 -10 -9 -9 -8
-6 -6 -7 -7 -7 -7 -7 -8 -8 -8 -8 -8 -9 -9 -9 -9 -9 -9 -9 -9 -9 -8 -8 -8 -8 -8 -9 -9 -9 -9 -9 -9 -9 -9 -10 -10 -10 -10 -10 -10 -9 -9 -8
-6 -6 -7 -8 -7 -7 -7 -7 -8 -7 -7 -8 -8 -9 -9 -9 -9 -9 -9 -9 -8 -8 -8 -8 -8 -9 -9 -9 -10 -9 -9 -9 -9 -10 -10 -10 -10 -10 -10 -9 -9 -9 -8
-6 -6 -7 -7 -7 -7 -7 -7 -7 -8 -8 -8 -8 -8 -9 -8 -8 -8 -8 -8 -8 -8 -8 -8 -8 -9 -9 -9 -9 -10 -9 -9 -9 -10 -10 -10 -10 -9 -9 -9 -9 -9 -9
-6 -6 -7 -7 -8 -8 -7 -7 -7 -7 -8 -8 -8 -8 -8 -8 -8 -8 -8 -8 -8 -8 -8 -8 -8 -9 -9 -9 -10 -10 -9 -9 -10 -10 -10 -10 -10 -9 -9 -9 -8 -8 -8
-6 -6 -6 -7 -7 -7 -7 -7 -7 -7 -7 -7 -8 -7 -8 -8 -8 -8 -8 -8 -8 -8 -8 -8 -8 -9 -9 -9 -9 -9 -10 -10 -10 -10 -10 -10 -10 -9 -9 -9 -8 -8 -8
-6 -6 -6 -7 -7 -7 -7 -7 -7 -7 -7 -7 -7 -7 -8 -7 -7 -8 -7 -7 -8 -8 -8 -8 -8 -8 -9 -9 -9 -9 -10 -10 -10 -10 -10 -10 -10 -9 -9 -8 -8 -8 -8
-6 -6 -6 -7 -7 -7 -7 -7 -7 -7 -7 -7 -7 -7 -7 -7 -7 -7 -7 -7 -7 -8 -8 -8 -8 -8 -8 -9 -9 -10 -10 -10 -10 -10 -10 -10 -9 -10 -9 -8 -8 -8 -8
-6 -6 -6 -7 -7 -7 -7 -7 -7 -7 -7 -7 -7 -7 -7 -7 -7 -7 -7 -7 -7 -8 -8 -8 -8 -8 -8 -9 -9 -10 -10 -10 -10 -10 -10 -10 -10 -9 -9 -9 -8 -8 -8
-6 -6 -6 -7 -7 -7 -7 -7 -7 -7 -7 -7 -7 -7 -7 -7 -7 -7 -7 -8 -8 -7 -7 -8 -8 -8 -8 -8 -9 -10 -10 -10 -10 -10 -10 -10 -10 -10 -9 -9 -8 -8 -8
-6 -6 -6 -7 -6 -7 -7 -7 -7 -7 -7 -7 -7 -7 -7 -7 -8 -7 -7 -8 -8 -8 -8 -8 -7 -8 -8 -8 -9 -9 -9 -10 -10 -10 -10 -10 -10 -9 -8 -8 -8 -8 -8
Height
5887 5886 5886 5887 5887 5887 5887 5887 5888 5888 5889 5890 5890 5891 5890 5890 5890 5891 5893 5895 5897 5896 5897 5899 5900 5903 5903 5904 5904 5906 5906 5907 5907 5908 5908 5908 5909 5909 5911 5908 5909 5909 5911
5889 5888 5888 5889 5889 5889 5889 5890 5890 5890 5890 5892 5892 5892 5892 5892 5891 5893 5894 5896 5897 5899 5900 5901 5902 5904 5906 5907 5906 5908 5907 5909 5909 5910 5910 5910 5911 5912 5911 5911 5912 5912 5912
5889 5890 5890 5891 5890 5890 5890 5891 5892 5893 5893 5894 5894 5894 5894 5894 5894 5895 5897 5899 5901 5901 5902 5903 5905 5906 5908 5908 5908 5910 5909 5910 5913 5912 5911 5911 5913 5914 5913 5914 5915 5914 5913
5892 5892 5891 5891 5890 5890 5891 5892 5893 5895 5896 5897 5896 5897 5897 5897 5896 5899 5901 5902 5903 5904 5904 5905 5908 5909 5910 5910 5912 5911 5912 5914 5913 5913 5914 5914 5915 5916 5916 5916 5915 5914 5912
5894 5893 5892 5891 5891 5890 5892 5893 5894 5896 5897 5898 5899 5901 5900 5901 5902 5902 5904 5905 5907 5908 5909 5910 5912 5912 5913 5913 5913 5913 5914 5914 5914 5916 5916 5917 5918 5918 5917 5917 5915 5914 5914
5895 5894 5893 5892 5891 5891 5892 5894 5896 5897 5899 5900 5902 5903 5904 5904 5905 5906 5907 5908 5910 5911 5912 5914 5914 5915 5915 5916 5915 5916 5916 5915 5917 5918 5919 5920 5920 5919 5919 5918 5917 5917 5916
5897 5896 5895 5894 5894 5894 5894 5896 5897 5899 5901 5902 5905 5906 5907 5909 5909 5909 5910 5911 5911 5913 5915 5916 5917 5917 5918 5918 5918 5918 5917 5917 5919 5921 5922 5922 5921 5921 5921 5920 5920 5919 5919
5899 5899 5898 5897 5897 5897 5897 5898 5900 5902 5903 5905 5907 5909 5909 5909 5911 5910 5912 5914 5915 5917 5917 5917 5918 5918 5918 5919 5920 5920 5920 5921 5922 5922 5923 5924 5924 5923 5923 5923 5922 5922 5921
5901 5901 5901 5901 5901 5901 5901 5901 5903 5904 5906 5907 5909 5911 5912 5912 5912 5913 5914 5915 5917 5918 5919 5920 5920 5920 5920 5921 5923 5924 5923 5924 5924 5925 5926 5926 5925 5925 5926 5926 5925 5925 5924
5902 5902 5903 5903 5904 5904 5905 5905 5906 5906 5908 5909 5911 5913 5914 5915 5916 5916 5918 5918 5919 5920 5921 5922 5922 5923 5923 5924 5925 5926 5926 5927 5927 5928 5928 5928 5927 5928 5929 5929 5928 5928 5928
5904 5904 5905 5906 5906 5906 5907 5907 5908 5908 5910 5911 5913 5915 5917 5918 5919 5921 5921 5922 5922 5924 5924 5925 5925 5926 5926 5927 5928 5929 5930 5931 5931 5931 5931 5931 5931 5932 5932 5933 5933 5932 5931
5906 5906 5907 5907 5908 5908 5909 5910 5911 5911 5911 5913 5914 5916 5918 5920 5922 5923 5923 5925 5926 5927 5927 5928 5928 5929 5929 5930 5931 5932 5934 5934 5934 5934 5934 5934 5935 5935 5936 5936 5936 5935 5934
5908 5908 5909 5910 5911 5911 5912 5912 5913 5914 5915 5915 5916 5918 5920 5923 5924 5925 5927 5928 5929 5929 5931 5931 5931 5932 5933 5933 5933 5936 5938 5938 5937 5937 5937 5937 5939 5939 5939 5940 5939 5938 5938
5910 5910 5911 5912 5914 5914 5914 5915 5916 5917 5918 5918 5920 5921 5922 5924 5926 5927 5929 5929 5930 5932 5933 5933 5934 5935 5936 5936 5937 5938 5940 5941 5941 5941 5940 5942 5943 5943 5943 5943 5943 5942 5941
5911 5912 5913 5914 5916 5917 5917 5918 5919 5920 5921 5921 5922 5923 5925 5927 5928 5929 5931 5931 5932 5933 5934 5935 5937 5939 5940 5940 5941 5943 5944 5945 5945 5945 5945 5946 5946 5946 5946 5947 5946 5945 5945
5912 5914 5915 5917 5918 5919 5920 5921 5922 5922 5923 5924 5925 5926 5927 5928 5929 5931 5932 5933 5934 5935 5937 5939 5940 5941 5943 5944 5945 5947 5948 5949 5949 5949 5949 5950 5950 5950 5951 5950 5950 5950 5949
5914 5916 5918 5919 5920 5921 5922 5924 5925 5926 5926 5926 5926 5927 5929 5929 5931 5933 5934 5935 5936 5938 5940 5942 5943 5945 5946 5947 5949 5952 5953 5953 5954 5953 5953 5954 5954 5954 5955 5955 5954 5954 5952
5917 5917 5919 5921 5921 5922 5924 5926 5928 5929 5929 5930 5930 5930 5930 5931 5933 5935 5936 5937 5940 5941 5943 5945 5946 5949 5950 5952 5954 5955 5957 5958 5958 5957 5957 5957 5958 5958 5959 5959 5958 5957 5956
5919 5919 5921 5922 5924 5925 5926 5928 5930 5930 5932 5932 5933 5933 5933 5934 5936 5937 5939 5940 5942 5944 5946 5947 5948 5951 5954 5956 5957 5959 5961 5962 5962 5962 5961 5961 5961 5962 5962 5963 5962 5961 5960
5921 5922 5923 5924 5926 5927 5929 5930 5931 5932 5933 5934 5936 5937 5937 5938 5939 5940 5941 5943 5944 5946 5949 5951 5951 5954 5956 5958 5959 5962 5964 5965 5966 5966 5966 5966 5966 5966 5966 5967 5966 5964 5963
5923 5923 5924 5926 5927 5928 5931 5933 5933 5934 5935 5937 5939 5941 5941 5942 5942 5943 5945 5946 5948 5950 5952 5953 5954 5956 5959 5961 5962 5964 5966 5968 5969 5969 5970 5969 5969 5970 5970 5970 5969 5968 5967
5923 5924 5925 5926 5929 5930 5931 5934 5935 5936 5937 5938 5941 5943 5944 5944 5945 5947 5949 5950 5952 5953 5955 5957 5958 5959 5962 5963 5965 5966 5968 5970 5971 5972 5972 5972 5972 5973 5974 5973 5972 5971 5970
5922 5924 5925 5926 5929 5932 5933 5935 5936 5938 5939 5941 5942 5943 5946 5947 5949 5950 5952 5953 5954 5955 5957 5959 5961 5961 5963 5964 5966 5968 5969 5971 5973 5974 5974 5974 5975 5975 5976 5976 5975 5974 5972
5921 5923 5926 5927 5929 5932 5933 5935 5937 5938 5941 5943 5944 5944 5946 5948 5951 5952 5954 5955 5956 5958 5960 5962 5962 5964 5965 5966 5967 5968 5970 5972 5973 5975 5976 5977 5977 5977 5977 5977 5976 5976 5975
5919 5921 5924 5929 5929 5933 5935 5936 5938 5940 5941 5944 5945 5946 5947 5948 5951 5953 5955 5957 5958 5960 5962 5963 5964 5965 5966 5967 5968 5970 5972 5973 5974 5976 5977 5977 5977 5977 5977 5977 5977 5978 5977
5918 5920 5923 5927 5931 5932 5935 5936 5939 5941 5942 5942 5945 5947 5947 5948 5950 5952 5955 5957 5958 5961 5962 5963 5965 5966 5967 5967 5968 5970 5972 5974 5975 5975 5976 5977 5977 5978 5977 5977 5977 5979 5978
Wind_Speed
9 10 11 11 12 12 13 14 15 15 16 19 19 18 18 19 19 18 19 20 21 20 20 19 20 18 18 18 18 17 15 14 14 14 15 17 17 16 15 16 15 14 12
10 10 11 11 11 12 13 14 15 14 16 19 18 20 21 19 23 16 17 22 23 21 20 20 19 18 17 17 17 16 17 16 16 16 19 19 17 16 17 16 13 13 12
10 10 10 10 10 10 12 13 15 14 14 15 17 18 19 19 19 21 21 21 21 20 19 19 18 18 17 17 16 15 17 18 18 18 19 20 19 18 18 16 14 12 12
9 9 9 9 9 10 11 13 15 15 14 14 16 16 18 18 18 20 20 19 18 19 19 18 16 16 15 15 14 17 20 19 19 18 18 20 19 18 16 15 13 12 13
8 10 10 10 11 11 11 14 15 14 13 14 15 16 15 17 17 18 20 19 18 18 18 17 16 16 15 15 15 18 20 19 18 17 18 18 18 17 16 15 15 16 15
9 11 12 12 12 11 11 14 17 16 14 14 16 17 16 16 17 18 18 19 18 17 18 18 18 18 17 16 17 18 18 19 18 17 16 17 17 18 17 18 18 18 17
10 13 13 14 14 14 14 14 17 16 15 15 15 16 16 17 16 19 19 19 19 19 19 19 18 17 16 16 15 18 18 17 16 16 15 17 19 19 18 18 17 17 16
11 13 14 15 16 16 16 16 16 16 15 15 14 14 14 14 13 16 19 19 20 19 20 19 17 17 15 15 14 15 17 15 14 14 15 18 21 20 18 18 18 20 21
12 13 15 16 18 18 17 16 15 15 14 14 14 14 14 13 16 22 20 19 20 20 20 17 16 17 15 14 14 15 15 13 15 16 19 21 20 19 20 20 23 24 25
13 13 15 17 19 19 18 16 14 13 13 14 15 14 14 15 19 19 19 18 18 18 18 16 16 16 15 15 15 16 16 17 19 21 22 21 20 22 22 24 26 25 25
12 12 15 16 18 18 18 16 15 11 12 15 15 14 15 15 17 15 15 17 15 16 16 16 15 17 18 17 19 20 20 20 21 21 20 20 22 24 26 26 25 26 27
12 12 14 15 17 17 17 16 16 16 18 16 15 15 15 14 14 14 15 15 14 14 15 15 16 18 20 22 22 21 20 20 19 20 22 24 26 27 27 26 27 28 29
12 11 12 13 14 16 15 17 16 16 17 16 16 16 15 13 13 13 15 15 14 14 13 15 17 19 21 24 24 20 17 18 21 23 27 28 28 27 27 27 29 29 30
9 12 10 13 13 16 16 16 16 15 15 15 13 14 16 13 12 12 13 14 14 14 15 16 19 20 21 22 21 21 21 22 24 27 29 28 26 27 29 29 29 30 31
9 9 14 13 12 13 16 15 16 15 14 12 11 12 14 11 10 12 12 14 14 15 17 16 19 20 19 20 19 20 21 23 26 26 27 26 26 28 29 29 30 30 28
10 8 9 12 11 12 12 13 14 14 13 11 9 9 11 11 10 10 11 13 14 14 17 18 19 18 18 19 19 19 20 22 24 24 24 24 26 26 27 28 29 28 27
15 15 8 12 11 13 12 14 13 13 12 10 8 10 10 13 12 11 11 14 15 15 17 19 19 18 18 17 18 18 19 20 21 22 23 24 24 24 25 26 26 27 26
13 13 10 8 10 9 13 15 12 13 13 11 11 12 10 14 15 14 14 15 16 19 20 19 19 17 16 17 16 17 17 18 18 20 22 22 21 21 23 23 24 24 24
11 13 12 14 15 12 12 15 14 13 12 10 10 12 12 13 16 16 17 19 18 19 19 19 19 18 15 16 15 17 17 16 16 17 19 18 18 19 23 20 20 21 23
11 12 13 11 11 11 12 13 12 11 12 10 10 11 15 15 15 17 18 20 19 19 17 17 17 18 16 16 16 17 16 15 15 15 15 15 15 16 19 17 18 20 20
12 12 13 10 11 11 10 12 12 13 12 12 10 12 15 16 18 18 19 19 19 18 16 15 16 17 15 15 15 16 16 14 14 13 13 13 11 13 14 15 17 18 19
17 14 14 14 10 11 12 13 12 12 14 12 12 12 13 16 18 17 16 17 16 16 15 14 16 16 14 13 13 14 14 13 13 12 11 10 9 9 11 13 16 18 19
19 16 15 15 11 12 12 12 13 14 13 13 12 12 13 13 13 14 13 14 15 14 14 15 15 15 14 13 12 13 14 12 11 9 8 7 8 8 9 10 14 15 17
19 18 15 15 14 12 13 12 12 15 13 11 12 14 13 13 11 12 11 12 12 13 13 13 14 14 14 12 11 11 13 12 10 8 7 5 4 6 7 7 10 13 14
19 19 17 15 18 15 15 12 13 13 15 14 12 14 14 13 12 11 10 9 9 9 9 11 11 13 13 13 13 10 11 12 9 7 5 3 3 3 1 4 6 9 11
21 20 20 18 18 17 15 16 14 13 14 15 13 13 14 14 14 12 12 10 9 8 8 8 9 10 11 12 12 13 12 12 10 9 8 5 3 2 2 2 5 7 9
Wind_Direction
94 92 93 98 104 101 94 87 86 92 92 91 89 92 94 102 117 125 130 131 123 116 116 119 119 123 123 130 129 123 114 111 111 114 108 105 101 99 104 94 95 92 98
96 94 92 92 94 96 95 93 91 89 95 95 94 95 97 97 98 122 135 141 125 118 119 122 122 122 123 124 115 116 115 114 111 108 105 100 97 100 94 89 92 89 89
97 95 88 79 85 89 96 98 97 96 107 100 100 99 97 97 95 93 95 101 117 120 115 115 118 121 123 116 113 116 111 108 109 106 102 99 97 93 91 88 82 82 79
87 80 79 81 82 91 101 104 104 108 113 110 103 100 103 101 103 105 106 108 112 113 115 115 116 116 115 111 114 114 110 109 106 102 105 102 99 93 88 84 78 72 73
80 76 79 83 87 90 101 109 110 111 116 118 114 110 108 107 105 104 103 108 112 112 113 112 113 112 106 106 112 112 110 102 99 101 103 100 98 93 86 81 77 76 76
74 82 79 80 90 99 105 114 119 119 119 119 119 115 111 106 107 107 110 110 111 109 106 107 110 109 104 102 105 106 104 101 100 100 105 99 94 93 89 84 81 81 82
75 84 81 84 84 96 104 115 122 122 124 124 121 117 116 115 113 117 110 113 112 109 109 105 104 100 101 98 105 108 104 103 104 103 102 99 95 97 94 87 80 77 74
81 84 81 82 83 89 100 110 115 119 120 119 120 114 110 116 120 119 117 111 110 111 109 102 101 98 96 99 104 105 101 105 105 105 106 103 104 102 93 82 79 76 73
86 88 86 83 85 87 92 100 108 115 117 115 118 112 114 114 117 119 112 107 107 105 101 98 94 96 95 100 102 98 101 106 106 111 112 109 106 96 87 85 80 78 77
89 91 88 89 86 85 89 96 101 112 117 116 121 119 116 112 120 119 109 112 109 106 105 100 97 99 100 101 103 102 103 106 112 114 113 110 100 93 90 85 83 80 77
98 103 96 94 91 89 87 88 84 91 125 119 119 121 121 123 118 114 114 109 108 106 100 95 98 103 100 102 101 100 105 110 113 113 108 100 96 94 90 85 83 80 76
101 108 104 101 97 93 91 95 89 89 112 116 117 119 121 121 116 111 121 117 111 105 102 97 99 103 107 107 106 107 110 113 112 107 102 98 97 95 90 86 82 77 72
99 105 114 109 105 100 91 99 98 98 105 112 121 124 119 111 112 113 110 114 113 111 106 107 114 112 113 112 110 109 110 112 109 104 102 101 100 95 91 88 82 78 73
92 95 122 123 109 103 100 104 106 105 107 113 116 120 115 117 122 116 116 114 110 109 112 113 117 118 119 115 114 116 116 109 107 107 105 103 100 98 94 88 84 77 70
104 102 111 105 112 107 104 102 106 107 105 108 117 122 116 117 119 121 121 120 114 112 115 118 121 122 122 117 116 116 114 115 111 108 107 106 103 98 92 88 81 74 70
102 114 105 106 102 111 109 108 106 106 103 107 119 117 125 125 126 127 129 127 119 123 122 128 126 129 125 117 118 118 117 115 116 113 110 108 103 96 92 85 79 74 68
113 116 91 120 107 108 113 116 109 105 102 106 109 105 121 125 122 127 127 131 123 128 126 129 129 131 123 120 120 117 120 122 118 118 114 107 102 97 89 82 77 73 66
124 127 121 119 147 113 118 119 117 108 101 104 98 100 117 122 127 128 126 127 125 127 134 134 129 122 121 119 118 118 120 119 121 120 114 111 105 97 87 78 74 71 67
124 121 118 122 117 129 124 122 126 115 103 96 93 98 117 123 126 128 126 126 126 132 138 138 129 122 116 118 120 122 123 124 124 121 118 112 105 97 88 78 71 66 60
133 130 134 136 122 149 119 140 139 124 116 107 98 100 105 114 126 130 130 130 132 135 134 130 128 125 127 130 128 126 130 131 125 121 114 109 97 86 84 82 71 62 55
146 145 143 129 129 127 129 134 138 131 127 123 119 112 114 122 126 126 132 134 136 132 131 139 136 135 133 133 131 133 140 135 125 124 120 111 94 80 70 69 61 55 51
154 162 156 141 139 137 144 135 133 137 134 135 138 123 122 118 121 124 133 130 131 132 134 139 131 132 140 142 133 139 146 143 136 133 131 127 109 79 61 55 56 48 44
163 162 159 146 151 155 155 154 143 147 142 147 143 141 136 129 130 132 133 135 134 136 139 140 136 143 144 140 144 144 154 155 151 140 137 136 117 86 60 44 48 46 41
169 159 164 159 157 164 157 160 159 155 149 155 154 150 149 142 145 144 135 133 135 140 147 149 144 143 145 139 143 148 157 163 161 152 150 142 106 80 49 39 37 38 32
177 168 164 174 169 172 168 161 167 169 160 162 160 150 152 157 158 162 157 160 153 150 155 159 160 153 148 149 146 153 160 162 163 164 171 133 139 73 31 24 21 32 24
181 177 166 180 180 177 180 170 170 177 176 167 168 167 160 158 167 173 178 183 182 172 170 167 159 164 158 148 159 161 165 164 164 168 182 191 206 235 239 27 353 11 11